TimeCST,TemperatureF,Dew PointF,Humidity,Sea Level PressureIn,VisibilityMPH,Wind Direction,Wind SpeedMPH,Gust SpeedMPH,PrecipitationIn,Events,Conditions,WindDirDegrees,DateUTC
12:52 AM,37.4,28.4,70,30.26,10.0,North,13.8,-,N/A,,Clear,360,2011-11-29 06:52:00
1:52 AM,35.1,28.0,76,30.31,10.0,North,11.5,-,N/A,,Clear,350,2011-11-29 07:52:00
2:52 AM,30.9,25.0,79,30.33,10.0,NNW,12.7,-,N/A,,Clear,330,2011-11-29 08:52:00
3:52 AM,26.6,23.0,86,30.32,10.0,NW,10.4,-,N/A,,Clear,320,2011-11-29 09:52:00
4:52 AM,26.1,21.9,84,30.36,10.0,NNW,9.2,-,N/A,,Clear,330,2011-11-29 10:52:00
5:52 AM,21.0,18.0,88,30.38,10.0,NW,10.4,-,N/A,,Clear,320,2011-11-29 11:52:00
6:52 AM,23.0,19.0,85,30.40,10.0,NW,11.5,-,N/A,,Clear,320,2011-11-29 12:52:00
7:52 AM,21.0,17.1,85,30.40,10.0,NW,8.1,-,N/A,,Clear,320,2011-11-29 13:52:00
8:52 AM,26.1,21.0,81,30.42,10.0,NW,9.2,-,N/A,,Clear,310,2011-11-29 14:52:00
9:52 AM,28.9,21.0,72,30.43,10.0,NW,9.2,-,N/A,,Clear,320,2011-11-29 15:52:00
10:52 AM,33.1,21.9,64,30.43,10.0,NW,8.1,-,N/A,,Clear,320,2011-11-29 16:52:00
11:52 AM,37.0,21.9,54,30.40,10.0,Variable,5.8,-,N/A,,Clear,0,2011-11-29 17:52:00
12:52 PM,39.0,19.9,46,30.36,10.0,NW,5.8,-,N/A,,Clear,320,2011-11-29 18:52:00
1:52 PM,42.1,17.1,37,30.33,10.0,Calm,Calm,-,N/A,,Clear,0,2011-11-29 19:52:00
2:52 PM,43.0,15.1,32,30.32,10.0,NW,4.6,-,N/A,,Clear,320,2011-11-29 20:52:00
3:52 PM,42.1,12.9,31,30.31,10.0,WNW,4.6,-,N/A,,Clear,290,2011-11-29 21:52:00
4:52 PM,37.4,8.6,30,30.27,10.0,NW,3.5,-,N/A,,Clear,310,2011-11-29 22:52:00
5:52 PM,32.0,12.0,44,30.29,8.0,Calm,Calm,-,N/A,,Clear,0,2011-11-29 23:52:00
6:52 PM,28.0,10.0,47,30.28,8.0,Calm,Calm,-,N/A,,Clear,0,2011-11-30 00:52:00
7:52 PM,24.1,10.0,55,30.27,10.0,ESE,3.5,-,N/A,,Clear,120,2011-11-30 01:52:00
8:52 PM,24.1,10.0,55,30.27,10.0,Calm,Calm,-,N/A,,Clear,0,2011-11-30 02:52:00
9:52 PM,19.9,8.1,60,30.25,10.0,ESE,4.6,-,N/A,,Clear,110,2011-11-30 03:52:00
10:52 PM,19.0,8.1,62,30.22,10.0,East,8.1,-,N/A,,Clear,100,2011-11-30 04:52:00
11:52 PM,19.0,6.1,57,30.19,10.0,ESE,9.2,-,N/A,,Clear,110,2011-11-30 05:52:00